Location: Ciserano
(45.5833°N, 9.6000°E)
Time: 12:35:06
(UTC+00:00)

Cosmos 1408 Rocket - Pass Details

Date: 29 November 2020
Orbit: 601 x 631 km, 82.6° (Epoch: 25 January)

Event Time Altitude Azimuth Distance (km) Brightness Sun altitude
Rises 04:55:25 0° 202° (SSW) 2,910 6.9 -17.7°
Reaches altitude 10° 04:57:43 10° 209° (SSW) 2,007 6.0 -17.3°
Maximum altitude 05:02:00 47° 283° (WNW) 844 3.8 -16.6°
Drops below altitude 10° 05:06:19 10° 357° (N) 2,014 6.0 -15.8°
Sets 05:08:38 0° 4° (N) 2,922 6.9 -15.4°
